Location: Banska Bystrica
(48.7333°N, 19.1500°E)
Time: 00:04:52
(UTC+01:00)

ISS - Pass Details

Date: 24 January 2021
Orbit: 417 x 422 km, 51.6° (Epoch: 06 March)

Event Time Altitude Azimuth Distance (km) Brightness Sun altitude
Rises 18:44:33 0° 266° (W) 2,371 1.6 -22.2°
Reaches altitude 10° 18:46:41 10° 271° (W) 1,508 0.2 -22.5°
Enters shadow 18:49:21 45° 305° (NW) 590 -2.8 -22.9°
